Regional Weather Roundup
Issued by NWS

Home | Current Version | Previous Version | Text Only | Print | Product List | Glossary Off
Versions: 1 2 3 4 5 6 7 8 9 10 11 12 13 14 15 16 17 18 19 20 21 22 23 24 25 26 27 28 29 30 31 32 33 34 35 36 37 38 39 40 41 42 43 44 45 46 47 48 49 50

000
ASUS45 KSLC 022210
RWRUT
UTAH REGIONAL WEATHER ROUNDUP
NATIONAL WEATHER SERVICE SALT LAKE CITY UT
400 PM MDT SUN AUG 02 2015

UTZ001>011-023>025-022300-

NORTHERN UTAH

CITY           SKY/WX    TMP DP  RH WIND       PRES   REMARKS
BRIGHAM CITY   PTSUNNY   92  29  10 W3        29.93F
HILL AFB       PTSUNNY   89  44  20 NW5       29.98F
LOGAN          SUNNY     94  29  10 N8        29.94F
OGDEN          PTSUNNY   92  40  16 W9        29.95F
PROVO AIRPORT  PTSUNNY   79  52  38 S14       30.02S
SALT LAKE CITY CLOUDY    90  34  13 S10       29.97R THUNDER
VERNAL         CLOUDY    87  48  25 S12       30.04F
WENDOVER       MOSUNNY   93  36  13 SE13      29.95F
HEBER CITY     CLOUDY    81  43  26 CALM      30.10R
WEST JORDAN    MOSUNNY   84  48  28 S21G28    30.04R

$$

UTZ012>022-026-027-022300-

SOUTHERN/CENTRAL UTAH

CITY           SKY/WX    TMP DP  RH WIND       PRES   REMARKS
BLANDING       CLOUDY    70  59  68 S8        30.23S
BRYCE CANYON   PTSUNNY   74  45  35 VRB3      30.25F
CEDAR CITY     CLOUDY    81  41  24 VRB6      30.11F
DELTA          CLOUDY    79  45  30 SE17      30.05S
HANKSVILLE     CLOUDY    66  61  82 E3        30.09F
MILFORD        CLOUDY    84  44  24 S7        30.04F
MOAB/CYNLANDS  LGT RAIN  77  60  55 SW15      30.03F
PRICE          CLOUDY    76  51  41 S10       30.15R
ST GEORGE      CLOUDY    93  52  24 NW9       29.93F HX  90
KANAB          PTSUNNY   84  54  34 S6        30.12F

$$

REGIONAL REPORTS     COLORADO/ARIZONA

CITY           SKY/WX    TMP DP  RH WIND       PRES   REMARKS
CRAIG, CO      CLOUDY    88  41  19 NW3       30.09F
GRAND JUNCTION CLOUDY    79  53  40 SW6       30.05F
RIFLE          CLOUDY    82  49  31 W17       30.07F
MONTROSE       PTSUNNY   72  55  55 SE12      30.16F
CORTEZ         MOSUNNY   72  59  63 SW8       30.16R
PAGE, AZ       PTSUNNY   79  61  53 VRB5      30.04F
GRAND CANYON   CLOUDY    65  59  81 NE7       30.21F
KINGMAN        SUNNY     97  44  16 NW9G20    29.97F HX  93
FLAGSTAFF      PTSUNNY   70  48  45 NW10G20   30.25R THUNDER

$$

REGIONAL REPORTS    NEVADA/IDAHO/WYOMING

CITY           SKY/WX    TMP DP  RH WIND       PRES   REMARKS
LAS VEGAS, NV  MOSUNNY  102  48  16 N8        29.81F HX  98
ELY            CLOUDY    79  38  22 SW13      30.14S
ELKO           MOSUNNY   91  36  14 E5        30.02F
POCATELLO, ID  MOSUNNY   96  35  11 N12       29.97F HX  91
BURLEY         PTSUNNY   91  40  16 CALM      29.93F
EVANSTON, WY   MOSUNNY   86  25  11 E9G18     30.16F
ROCK SPRINGS   MOSUNNY   86  29  12 VRB5      30.13F
KEMMERER       MOSUNNY  N/A N/A N/A CALM      30.18F

$$



USA.gov is the U.S. government's official web portal to all federal, state and local government web resources and services.